User: anonymous   Login
Location: Canazei
(46.4667°N, 11.7667°E)
Time: 12:08:21
(UTC+00:00)
Language:

Cosmos 864 Rocket - Orbit

View from above orbital plane
View from above orbital plane
View from above satellite
View from above satellite

Ground track
Ground track

The orbit data is extracted from the following two-line orbital elements,

1 09510U 76108B   21170.93939338  .00000045  00000-0  30030-4 0  9994
2 09510  82.9371  15.3626 0027080  46.0070 314.3313 13.77598328243004
Epoch (UTC): 19 June 2021 22:32:43
Eccentricity: 0.0027080
inclination: 82.9371°
perigee height: 952 km
apogee height: 992 km
right ascension of ascending node: 15.3626°
argument of perigee: 46.0070°
revolutions per day: 13.77598328
mean anomaly at epoch: 314.3313°
orbit number at epoch: 24300

The dashed part of the orbit path shows where the satellite is in the earth's shadow,  

DLR